Simultaneous Nadir Overpasses (SNOs) Predictions

Prediction of SNOs between GOES-15 and METOP-A Satellite Orbit:

Table of predicted SNOs for the next 14.0 days since TLE Epoch: 1/11/2019
Index Date Time (GOES-15) GOES-15 Lat,Lon METOP-A Lat,Lon Distance(km) Time Diff (sec)
1 01/12/2019 17:51:09 -0.06,-128.23 0.31,-129.81 180.18 80
2 01/13/2019 17:33:08 -0.06,-128.21 -0.84,-124.82 386.38 80
3 01/15/2019 05:52:03 0.05,-128.20 -0.23,-129.41 137.64 80
4 01/16/2019 05:28:40 0.06,-128.17 0.86,-124.41 427.68 80
5 01/17/2019 17:47:29 -0.05,-128.07 0.13,-128.98 102.52 80
6 01/18/2019 17:29:26 -0.05,-128.04 -0.96,-123.98 463.08 80
7 01/20/2019 05:48:22 0.04,-128.03 -0.10,-128.56 61.74 80
8 01/22/2019 17:43:47 -0.04,-127.87 -0.00,-128.13 29.37 80
9 01/25/2019 05:42:00 0.03,-127.82 0.04,-127.72 11.27 80




NCC Satellite Simultaneous Nadir Overpasses (SNOs) Prediction Service
